Theta_e
273 273 273 272 272 271 270 270 269 269 268 268 268 268 267 267 268 267 267 268 267 268 269 269 270 271 271 271 272 272 272 272 269 272 275 276 277 278 280 282 283 285 287
272 272 271 271 270 269 269 268 268 267 267 267 267 266 266 267 266 266 266 267 267 268 268 269 269 271 269 270 270 270 270 271 271 269 273 274 275 278 279 280 283 287 285
271 270 270 269 268 268 267 267 267 266 266 266 266 265 266 265 266 266 267 268 268 268 269 269 269 269 269 269 270 270 271 273 272 271 270 273 275 277 279 280 282 285 285
270 269 268 268 268 267 267 266 266 265 265 265 265 265 265 265 265 266 268 268 269 270 271 271 271 271 270 270 271 270 271 271 271 271 271 272 274 277 280 280 281 282 281
268 267 267 267 267 266 265 265 265 264 264 264 265 264 264 265 266 268 269 270 269 270 271 272 273 273 275 275 274 273 273 272 272 272 272 273 274 277 278 279 278 280 281
263 263 263 264 265 264 264 263 263 263 263 264 263 263 263 265 269 271 272 269 271 271 270 272 273 274 275 277 278 279 279 275 274 274 274 274 275 277 280 280 278 276 276
259 260 260 260 261 261 262 262 261 261 262 262 262 263 263 264 269 271 272 271 271 271 272 272 273 273 273 273 277 280 280 281 281 278 276 276 277 280 279 278 278 278 277
257 257 258 258 259 260 260 260 260 261 261 261 261 263 263 263 269 271 273 271 271 271 271 270 269 270 271 274 275 276 277 279 280 280 281 280 281 280 279 278 277 276 277
258 258 258 256 259 259 259 259 260 261 261 261 263 263 263 263 268 271 272 270 271 269 272 270 270 270 274 277 276 275 277 279 284 286 285 285 286 285 281 276 270 271 267
263 261 261 260 259 258 259 260 261 261 261 263 263 263 263 263 268 271 272 270 267 268 270 270 272 271 275 278 275 274 276 275 274 277 278 278 281 282 282 278 276 268 264
264 263 261 261 260 260 261 262 261 261 262 261 261 262 263 264 266 271 272 270 268 270 269 268 269 273 276 277 277 273 278 274 276 274 276 275 275 274 274 273 274 274 266
262 261 260 260 261 262 261 261 261 261 261 261 261 262 264 266 268 269 271 272 272 269 269 269 269 273 274 275 274 280 281 278 276 274 272 272 272 272 272 272 273 274 272
259 258 259 260 261 262 261 260 261 261 261 261 261 262 263 266 266 269 270 272 272 270 269 269 270 271 272 271 273 276 277 275 273 271 270 270 271 271 270 268 268 269 269
257 258 259 259 259 260 261 261 260 260 260 262 263 263 263 264 264 266 269 269 271 269 265 264 267 268 269 269 268 269 270 273 273 272 271 271 270 269 268 265 265 265 267
258 258 259 259 258 259 260 260 261 262 264 264 264 264 263 262 266 270 270 269 268 269 260 260 261 261 263 263 265 265 266 267 267 269 269 269 269 268 267 263 264 263 264
257 258 258 258 258 259 259 259 263 265 267 268 268 267 266 269 270 271 271 271 269 269 255 255 258 259 260 261 262 263 264 264 264 265 265 266 266 266 266 265 263 263 264
256 256 257 257 258 258 258 258 256 260 265 265 266 266 268 268 269 270 270 268 266 263 249 252 256 258 259 260 260 261 261 262 262 262 261 261 262 262 263 262 263 263 263
253 255 256 257 258 258 258 257 258 257 256 257 261 264 266 266 268 269 268 262 253 254 249 252 250 253 257 258 258 259 260 260 260 258 257 255 256 256 258 257 258 256 258
254 255 256 258 258 258 258 258 258 257 256 256 257 260 261 265 267 266 265 255 249 250 249 249 250 253 252 252 253 252 251 253 253 253 252 251 251 251 250 250 252 253 252
254 255 257 257 257 258 258 257 257 257 256 256 256 257 258 261 259 258 258 258 251 250 251 250 251 248 249 248 248 249 249 250 250 250 250 249 249 250 250 249 249 250 250
255 256 256 257 257 257 257 257 257 257 256 257 257 259 266 261 258 258 258 258 258 256 252 252 252 250 248 248 247 247 247 249 248 248 248 249 248 250 248 249 248 247 248
255 255 256 256 257 257 257 257 257 257 257 257 257 258 264 259 258 258 258 258 259 259 257 253 254 252 252 251 251 250 249 249 247 246 247 248 249 248 247 248 247 248 248
254 255 256 256 256 256 257 257 257 257 257 257 258 258 258 258 259 259 259 259 259 259 259 256 253 254 251 252 251 252 252 252 251 249 248 247 248 248 247 248 248 247 247
252 254 255 255 256 256 256 257 257 257 257 257 258 258 259 259 259 259 260 260 260 261 260 260 258 254 255 252 251 252 253 254 249 251 251 250 249 247 246 246 247 247 248
251 252 254 254 255 256 256 256 257 257 257 258 259 259 259 260 260 260 261 261 261 261 261 261 260 259 256 254 254 252 252 258 255 253 251 251 251 249 248 248 249 248 248
251 252 253 254 255 256 255 256 257 257 258 258 259 260 260 260 261 261 262 262 262 262 262 262 262 261 261 260 258 258 257 259 256 256 255 254 253 253 252 252 252 253 253
Wind_Speed
8 9 9 9 10 10 10 11 12 13 13 14 14 14 15 15 14 14 14 15 15 15 14 14 15 14 10 9 8 8 9 10 14 11 10 11 14 14 14 12 14 13 8
8 9 10 10 10 10 11 12 12 13 13 14 14 14 14 14 14 14 15 15 14 15 16 15 15 12 13 12 9 12 10 12 12 17 14 11 13 15 16 14 12 9 5
8 9 9 10 10 10 12 12 12 13 13 13 13 14 14 15 14 14 14 15 16 16 17 16 16 15 14 11 12 11 11 11 11 12 14 11 12 12 14 13 10 7 3
8 9 10 11 11 11 11 12 12 12 13 13 13 13 14 14 15 15 17 17 17 15 17 16 16 16 16 16 13 14 13 12 12 11 12 12 11 13 12 10 4 2 0
7 7 9 10 11 11 12 12 12 12 11 12 14 13 13 12 11 16 16 15 15 17 18 17 17 18 26 24 13 14 13 12 12 12 11 12 12 11 8 2 2 2 1
6 7 7 8 10 11 12 12 12 12 12 12 13 13 13 11 23 25 23 14 16 16 17 18 17 20 17 25 26 28 23 15 15 12 11 12 15 12 4 4 2 1 1
5 6 6 7 10 11 11 11 11 12 12 12 13 13 14 14 25 26 26 15 13 16 16 15 13 11 15 16 22 26 23 27 29 18 17 14 13 9 2 2 1 1 2
7 7 7 7 10 11 11 11 11 10 11 12 12 13 14 13 26 26 28 14 14 14 16 11 13 15 16 22 19 18 24 13 9 10 13 14 8 5 4 2 3 4 3
6 7 7 6 11 11 12 12 12 11 11 11 12 13 14 15 25 26 23 14 13 13 11 11 14 15 26 32 20 17 16 9 12 11 15 16 14 12 9 6 3 4 3
9 9 10 10 10 11 12 12 10 10 12 11 13 12 13 15 23 26 23 10 11 12 10 11 21 20 31 31 19 17 5 4 5 8 8 13 10 11 11 6 3 3 2
11 12 12 12 12 12 12 10 10 11 11 11 12 13 12 13 14 26 25 11 10 10 10 10 11 30 30 30 29 16 3 1 7 6 8 7 9 9 7 7 6 3 3
11 11 12 12 11 10 13 11 11 11 10 11 12 12 10 11 17 21 24 24 21 11 9 10 12 29 28 27 22 28 14 9 5 7 7 7 7 7 6 7 8 9 8
11 11 10 12 11 11 12 12 10 10 9 10 10 9 10 9 9 23 26 24 21 12 9 17 24 24 24 17 26 26 12 7 7 7 7 7 5 4 4 4 4 7 9
11 11 11 10 11 11 9 9 9 9 9 10 10 10 9 9 10 10 8 10 11 9 11 8 15 17 18 17 15 16 11 9 7 6 6 5 4 5 6 3 3 3 4
10 11 10 9 10 10 9 9 10 10 13 11 10 9 10 10 10 20 18 11 8 11 9 7 7 9 10 10 11 12 11 11 10 8 6 5 5 5 5 3 3 3 5
10 9 8 8 8 8 9 10 18 21 23 22 21 17 9 19 24 24 24 20 20 19 5 4 6 8 8 9 9 9 10 11 9 8 7 6 5 5 4 4 3 3 4
9 10 8 8 8 9 9 10 12 17 22 20 21 22 21 21 24 23 23 20 18 13 3 3 4 6 6 7 7 7 8 7 7 6 5 5 5 4 4 5 4 3 3
7 11 8 8 8 9 9 10 9 10 13 14 16 19 20 22 24 23 20 13 5 6 1 2 3 3 4 5 5 5 6 6 5 4 4 3 4 3 4 3 4 3 3
7 7 7 8 8 9 8 9 9 10 10 11 12 13 13 22 20 20 17 1 2 3 3 3 2 3 3 2 2 2 2 3 2 2 2 3 3 3 3 3 3 4 3
6 10 9 8 8 8 8 9 9 9 10 9 10 10 11 10 9 9 7 6 3 4 4 4 4 3 3 3 3 2 3 3 3 3 3 2 2 2 1 1 2 2 1
6 7 9 7 8 8 8 9 9 9 9 10 10 10 23 11 9 8 8 7 7 5 5 4 4 4 3 3 3 3 2 3 2 2 2 2 1 1 1 1 1 1 1
5 6 6 7 8 8 9 9 9 9 9 10 11 11 23 8 8 8 8 8 7 7 5 5 5 5 5 4 4 4 4 4 3 3 3 2 2 2 1 0 1 1 1
4 6 7 7 7 9 9 8 9 9 10 10 10 10 10 9 9 9 9 9 8 7 7 4 5 6 5 5 5 5 5 6 5 4 3 3 2 2 2 2 2 2 2
4 6 7 7 7 8 8 10 9 11 10 10 10 10 10 10 10 11 10 9 9 8 7 7 6 8 7 6 5 5 6 5 4 5 7 4 4 4 2 3 3 4 3
4 5 6 6 7 8 10 9 10 10 10 10 10 10 11 11 11 11 10 9 9 9 9 8 7 9 10 11 10 9 9 12 7 7 5 5 6 6 4 3 4 3 4
4 5 5 5 6 7 8 9 10 10 11 11 11 11 11 12 11 11 11 11 10 10 11 9 10 13 13 11 12 12 12 13 11 11 7 6 6 6 5 7 7 5 6
Wind_Direction
354 337 338 341 342 337 332 332 327 330 326 327 324 326 323 320 323 323 312 306 312 303 302 302 305 297 291 292 291 287 284 282 287 290 286 291 286 285 285 277 273 270 268
342 332 337 338 336 332 330 326 333 324 326 322 325 320 320 325 320 314 313 302 302 303 301 300 297 295 295 286 281 279 277 278 283 286 285 289 287 287 279 274 270 264 247
330 332 330 333 329 328 326 328 324 323 320 320 321 320 323 321 314 316 299 307 301 298 294 290 288 289 284 279 276 276 272 271 276 279 286 285 281 283 283 272 260 246 213
327 326 329 328 326 326 321 323 319 318 316 317 317 315 317 313 317 307 308 300 297 298 298 287 284 279 275 274 269 268 266 264 264 266 270 278 276 281 275 262 243 85 194
316 310 318 318 321 319 320 318 313 313 312 310 313 314 311 314 310 308 302 301 303 300 299 299 292 285 278 276 273 269 261 254 256 259 264 268 270 279 279 246 107 114 68
303 293 307 305 314 318 316 313 312 310 310 309 313 311 311 306 314 311 317 307 302 305 307 307 304 305 300 296 291 280 266 261 252 247 250 255 268 274 233 121 121 169 105
298 304 306 307 313 316 309 311 307 307 306 308 308 307 306 307 312 318 316 305 310 305 315 320 333 332 331 316 309 316 294 278 261 258 255 247 263 264 161 100 112 57 77
311 306 306 305 315 316 312 309 304 303 307 309 306 303 306 306 317 316 315 319 308 311 317 322 324 323 324 318 319 316 299 277 250 238 255 229 228 136 109 117 113 91 59
308 306 304 300 314 313 309 305 303 305 312 307 307 310 310 306 315 319 322 313 311 314 316 326 329 324 319 325 325 325 321 8 33 72 96 105 113 117 120 102 29 84 28
328 322 317 312 306 305 299 300 300 306 303 309 308 309 302 301 309 323 320 316 326 314 325 329 328 329 326 328 329 327 310 359 22 45 43 47 57 81 77 56 94 96 115
328 323 317 314 311 303 300 304 303 304 308 307 308 306 305 303 309 320 325 329 316 316 327 331 328 330 328 335 339 319 221 91 64 55 61 52 54 52 47 44 36 79 104
323 317 315 313 312 310 313 312 312 311 311 311 307 307 309 312 319 325 326 330 320 327 334 329 333 328 337 343 344 330 118 94 64 62 64 55 60 54 47 47 48 61 59
319 313 312 312 313 317 317 317 316 320 312 314 308 310 321 326 317 315 316 314 329 334 345 344 336 341 344 347 356 12 42 63 76 74 68 60 49 42 38 36 39 60 60
315 318 318 318 318 315 318 313 320 317 316 308 320 322 323 327 314 303 317 314 325 359 10 350 352 350 357 1 360 13 20 29 53 67 70 62 45 41 43 29 44 14 59
321 318 318 319 316 316 318 320 321 315 316 325 325 325 330 322 314 336 331 342 360 358 21 2 356 358 1 4 5 12 18 23 30 25 40 45 48 48 41 12 30 28 66
323 324 318 317 316 317 322 318 320 327 331 334 334 336 325 327 333 332 345 356 356 7 20 355 0 1 4 4 5 7 14 17 16 20 23 28 34 35 36 27 53 59 75
319 314 311 314 315 323 326 324 324 324 331 335 338 338 335 335 336 336 345 11 355 12 17 341 357 356 357 2 2 2 6 7 3 14 21 18 13 20 22 29 23 36 39
310 298 299 308 313 319 322 319 315 322 323 324 333 332 337 334 334 347 347 8 341 352 344 328 312 317 344 349 351 356 355 355 3 3 8 10 20 28 27 22 24 41 27
325 310 312 308 311 314 313 315 316 316 314 311 316 327 327 323 327 346 348 309 283 304 295 309 273 301 293 297 300 316 320 326 327 354 -0 22 8 47 19 26 24 38 66
308 298 313 310 313 323 322 320 318 317 313 311 314 317 317 314 340 332 325 317 290 271 277 276 281 268 273 271 286 300 319 343 349 349 340 349 10 61 57 22 45 48 350
305 306 312 305 322 322 319 317 315 313 310 311 310 313 324 344 317 312 312 309 303 292 264 261 264 262 254 257 260 266 254 271 275 282 302 304 318 332 195 183 165 168 184
297 306 312 316 318 320 318 313 311 308 310 310 312 314 326 320 310 307 304 301 294 284 267 250 266 241 238 234 234 234 238 246 248 248 259 265 260 235 214 214 308 247 220
299 311 318 316 319 316 318 316 314 313 312 312 312 313 318 315 311 307 304 301 295 288 280 250 245 261 239 235 222 217 226 236 223 197 219 228 227 237 207 227 229 258 217
304 316 315 315 320 320 319 320 315 315 314 313 313 313 312 311 308 304 300 297 293 287 277 269 253 242 256 242 230 224 227 234 195 206 203 201 227 223 214 216 221 223 228
310 318 313 311 319 318 321 321 317 316 318 317 317 315 313 310 308 305 301 296 291 287 282 274 262 256 245 241 240 227 225 240 221 195 194 198 214 216 208 208 216 223 226
313 312 301 309 319 321 322 321 320 322 321 320 317 316 315 313 310 309 307 303 297 291 285 273 262 254 254 249 243 238 231 228 223 216 196 202 215 223 213 224 229 229 234